Regional Weather Roundup
Issued by NWS Newport/Morehead, NC

Current Version | Previous Version | Graphics & Text | Print | Product List | Glossary On
Versions: 1 2 3 4 5 6 7 8 9 10 11 12 13 14 15 16 17 18 19 20 21 22 23 24 25 26 27 28 29 30 31 32 33 34 35 36 37 38 39 40 41 42 43 44 45 46 47 48 49 50
000 ASUS42 KMHX 241622 RWRMHX WEATHER ROUNDUP FOR EASTERN NORTH CAROLINA NATIONAL WEATHER SERVICE NEWPORT/MOREHEAD CITY NC 1100 AM EST MON NOV 24 2014 NOTE: "FAIR" INDICATES FEW OR NO CLOUDS BELOW 12,000 FEET WITH NO SIGNIFICANT WEATHER AND/OR OBSTRUCTIONS TO VISIBILITY NCZ015>017-031-032-045>047-102-103-241700- NORTH COAST CITY SKY/WX TMP DP RH WIND PRES REMARKS EDENTON CLOUDY 69 64 81 SW12 29.87R ELIZABETH CITY PTSUNNY 74 66 76 S15 29.85F KITTY HAWK PTSUNNY 65 64 93 S6 29.85F MANTEO PTSUNNY 62 61 96 S12 29.88F $$ NCZ045>047-081-094-103-104-241700- CENTRAL COAST CITY SKY/WX TMP DP RH WIND PRES REMARKS FRISCO CLOUDY 69 68 96 SW13G20 29.91F FOG SWANQUARTER N/A 63 N/A N/A S10 29.85S $$ NCZ095-097-098-100-101-241700- SOUTHERN COAST CITY SKY/WX TMP DP RH WIND PRES REMARKS BEAUFORT CLOUDY 67 66 97 SW10 29.91S FOG CEDAR ISLAND N/A 70 N/A N/A SW5G13 29.94S JACKSONVILLE CLOUDY 70 68 93 SW7 29.89S PINEY ISLAND CLOUDY 73 69 87 SW8 29.90S FOG WILMINGTON CLOUDY 71 69 93 SW10G23 29.89S $$ NCZ011>013-027>030-043-044-078>080-089-090>093-098-241700- COASTAL PLAIN CITY SKY/WX TMP DP RH WIND PRES REMARKS AHOSKIE PTSUNNY 70 61 72 S8 29.84F CLINTON CLOUDY 69 67 94 S5 29.88S ELIZABETHTOWN CLOUDY 68 68 99 SW5 29.88S GOLDSBORO CLOUDY 72 72 100 SW13 29.85S GREENVILLE CLOUDY 72 64 78 SW13G20 29.89S HAVELOCK CLOUDY 70 67 90 S7 29.90F KENANSVILLE CLOUDY 69 66 90 SW3 29.88F KINSTON CLOUDY 72 66 83 S10 29.88 NEW BERN CLOUDY 71 67 87 S8 29.90S RICHLANDS CLOUDY 68 64 88 S8 29.89F ROCKY MOUNT PTSUNNY 70 62 76 SW14G22 29.86S WASHINGTON PTSUNNY 70 65 84 SW9 29.88S WHITEVILLE LGT RAIN 68 67 96 S5 29.88S $$ AMZ130-135-150-152-154-156-158-170-250-252-270-ANZ085-086-088-633-658-670-241700- MARINE OBSERVATIONS STATION/POSITION TIME TEMP WIND PRES WAVE SWELL AIR SEA DIR/SP/G HT/PER HT/PER (UTC) (F) (DEG/KT/KT) (MB) (FT/S) (FT/S) CHESAPEAKE LIGHT 1600 61 190/ 23/ 23 1010.3 64 E VA BEACH 1600 66 64 210/ 23/ 29 1011.1 13/10 11/10 DUCK 1600 64 56 190/ 13/ 17 1010.3 2 E DUCK 1600 58 N/A 6/10 2/11 10 NE DUCK 1600 59 N/A 7/10 2/11 OREGON INLET 1600 61 54 180/ 11/ 12 1012.1 13E OREGON INLT 1600 63 N/A 8/ 9 2/11 HATTERAS CG 1600 69 61 220/ 11/ 15 1013.2 DIAMOND BUOY 1600 76 210/ 19/ 25 1012.8 10/ 9 7/ 9 17 S OCRACOKE NOT AVBL CAPE LOOKOUT 1600 69 220/ 10/ 13 1012.7 BEAUFORT LAB 1600 66 57 230/ 4/ 6 1011.8 30 SE NEW RIVER 1600 72 70 230/ 16/ 19 1013.0 9/10 7/10 5 SE WRIGHTSVLE 1600 62 60 220/ 10/ 12 1012.6 225 S CAPE HAT 1508 75 73 200/ 17/ 19 1018.4 9/ 8 5/13 41 SE CHARLESTON 1600 76 75 210/ 21/ 25 1012.1 9/ 9 7/ 9 $$

USA.gov is the U.S. government's official web portal to all federal, state and local government web resources and services.